{"data":{"norad_id":59901,"intl_designator":"2024-100S","name":"STARLINK-31908","alt_names":[],"object_type":"PAYLOAD","status":"ACTIVE","operator":null,"country":"US","launch_date":"2024-05-28","launch_site_code":"AFETR","launch_vehicle":null,"mission":null,"orbit_class":"UNKNOWN","rcs_meters":null,"size_class":null,"mass_kg":null,"dimensions":null,"purposes":["comms"],"wikipedia_slug":null,"has_3d_model":false,"image_url":null,"decayed_at":null,"tle_current":{"epoch":"2026-09-21T21:12:37.019520Z","epoch_age_seconds":54933,"freshness":"FRESH","line1":"1 59901U 24100S   26264.88376180  .00000130  00000+0  14264-4 0  9996","line2":"2 59901  43.0037  90.3513 0001090 276.2605  83.8122 15.27577100131231","mean_motion":15.275771,"eccentricity":0.000109,"inclination_deg":43.0037,"raan_deg":90.3513,"arg_perigee_deg":276.2605,"mean_anomaly_deg":83.8122,"bstar":1.4264e-5,"rev_number":13123,"period_min":94.266927672587,"perigee_km":482.30990946567,"apogee_km":483.80564992765,"semimajor_km":6861.1947796967,"source":"CELESTRAK","updated_at":"2026-09-22T09:00:49.108895Z"}}}